Location: Trebic
(49.2170°N, 15.8830°E)
Time: 12:28:50
(UTC+02:00)

Transit 2A Rocket - Pass Details

Date: 23 July 2019
Orbit: 590 x 913 km, 66.7° (Epoch: 19 August)

Event Time Altitude Azimuth Distance (km) Brightness Sun altitude
Rises 11:10:56 0° 325° (NW) 3,229 7.9 53.3°
Reaches altitude 10° 11:13:32 10° 332° (NNW) 2,244 7.2 53.6°
Maximum altitude 11:18:24 44° 45° (NE) 950 6.1 54.2°
Drops below altitude 10° 11:22:49 10° 118° (ESE) 2,046 8.0 54.7°
Sets 11:25:06 0° 125° (SE) 2,912 8.5 54.9°
